Location: Fountain Hills
(33.6120°N, 111.7170°W)
Time: 15:48:35
(UTC-07:00)

Hamsat - Visible Passes

Search period start: 28 June 2017 00:00
Search period end: 08 July 2017 00:00
Orbit: 584 x 619 km, 97.7° (Epoch: 28 June)

Date Brightness Start Highest point End Pass type
(mag) Time Alt. Az. Time Alt. Az. Time Alt. Az.
28 Jun ? 04:19:05 10° NNE 04:23:14 65° E 04:27:23 10° S visible
29 Jun ? 04:30:46 10° N 04:34:57 87° W 04:39:08 10° SSW visible
30 Jun ? 04:42:31 10° N 04:46:38 61° WNW 04:50:46 10° SSW visible
01 Jul ? 03:20:54 10° ENE 03:22:23 12° E 03:23:52 10° ESE visible
02 Jul ? 03:31:31 10° NE 03:34:11 16° E 03:36:51 10° SE visible
03 Jul ? 03:42:38 10° NE 03:45:58 23° E 03:49:18 10° SSE visible
04 Jul ? 03:53:59 10° NE 03:57:43 31° E 04:01:28 10° SSE visible
05 Jul ? 04:05:28 10° NNE 04:09:28 44° E 04:13:30 10° S visible
06 Jul ? 04:17:02 10° NNE 04:21:12 63° E 04:25:23 10° S visible
07 Jul ? 04:28:42 10° NNE 04:32:55 89° SE 04:37:09 10° SSW visible
